Zurück zum Katalog

STARLINK-31084

AktivKommunikationVLEO
NORAD 58630·PAYLOAD·🇺🇸 United States

Gestartet Dec 23, 2023 von Cape Canaveral Space Force Station

Loading…

Nächste Überflüge (nächste 24 Stunden)

TLE

AktuellSource: CelesTrak SupGP

Epoche: Sep 14, 2026, 21:03 UTC

1 58630C 23203N   26257.87756944  .00029992  00000+0  10868-2 0  2576
2 58630  43.0001  82.2549 0001281 272.2930  79.0979 15.27549648    12

Verfolge STARLINK-31084 in Echtzeit mit AllMySat

Download on the App Store